Location: Kerentrech
(47.7567°N, 3.3595°W)
Time: 08:52:36
(UTC+00:00)

STARLINK-1085 - Pass Details

Date: 17 February 2020
Orbit: 374 x 385 km, 53.0° (Epoch: 01 April)

Event Time Altitude Azimuth Distance (km) Brightness Sun altitude
Exits shadow 05:18:11 13° 170° (S) 1,260 5.5 -20.6°
Drops below altitude 10° 05:21:55 10° 92° (E) 1,409 6.9 -20.0°
Enters shadow 06:17:09 -71° 241° (WSW) 12,455 10.4 -10.7°
Maximum altitude 06:55:17 81° 332° (NNW) 394 2.9 -4.4°
